owner,sensor,date,latitude,longitude,vertical_datum,sea_water_temperature,qcFlag 
COMPS,ioos:station:USF.COMPS:FHP:1,2014-05-28T15:00:00Z,28.1530,-82.8010,-1.0,27.04,2 
COMPS,ioos:station:USF.COMPS:FHP:1,2014-05-28T15:06:00Z,28.1530,-82.8010,-1.0,27.07,2 
COMPS,ioos:station:USF.COMPS:FHP:1,2014-05-28T15:12:00Z,28.1530,-82.8010,-1.0,27.09,2 
COMPS,ioos:station:USF.COMPS:FHP:1,2014-05-28T15:18:00Z,28.1530,-82.8010,-1.0,27.11,2 
COMPS,ioos:station:USF.COMPS:FHP:1,2014-05-28T15:24:00Z,28.1530,-82.8010,-1.0,27.12,2 
COMPS,ioos:station:USF.COMPS:FHP:1,2014-05-28T15:30:00Z,28.1530,-82.8010,-1.0,27.14,2 
COMPS,ioos:station:USF.COMPS:FHP:1,2014-05-28T15:36:00Z,28.1530,-82.8010,-1.0,27.15,2 
COMPS,ioos:station:USF.COMPS:FHP:1,2014-05-28T15:42:00Z,28.1530,-82.8010,-1.0,27.17,2 
COMPS,ioos:station:USF.COMPS:FHP:1,2014-05-28T15:48:00Z,28.1530,-82.8010,-1.0,27.19,2 
COMPS,ioos:station:USF.COMPS:FHP:1,2014-05-28T15:54:00Z,28.1530,-82.8010,-1.0,27.22,2 
COMPS,ioos:station:USF.COMPS:FHP:1,2014-05-28T16:00:00Z,28.1530,-82.8010,-1.0,27.32,2 
COMPS,ioos:station:USF.COMPS:FHP:1,2014-05-28T16:06:00Z,28.1530,-82.8010,-1.0,27.41,2 
COMPS,ioos:station:USF.COMPS:FHP:1,2014-05-28T16:12:00Z,28.1530,-82.8010,-1.0,27.46,2 
COMPS,ioos:station:USF.COMPS:FHP:1,2014-05-28T16:18:00Z,28.1530,-82.8010,-1.0,27.38,2 
COMPS,ioos:station:USF.COMPS:FHP:1,2014-05-28T16:24:00Z,28.1530,-82.8010,-1.0,27.3,2 
COMPS,ioos:station:USF.COMPS:FHP:1,2014-05-28T16:30:00Z,28.1530,-82.8010,-1.0,27.32,2 
COMPS,ioos:station:USF.COMPS:FHP:1,2014-05-28T16:36:00Z,28.1530,-82.8010,-1.0,27.34,2 
COMPS,ioos:station:USF.COMPS:FHP:1,2014-05-28T16:42:00Z,28.1530,-82.8010,-1.0,27.45,2 
COMPS,ioos:station:USF.COMPS:FHP:1,2014-05-28T16:48:00Z,28.1530,-82.8010,-1.0,27.53,2 
COMPS,ioos:station:USF.COMPS:FHP:1,2014-05-28T16:54:00Z,28.1530,-82.8010,-1.0,27.58,2 
COMPS,ioos:station:USF.COMPS:FHP:1,2014-05-28T17:00:00Z,28.1530,-82.8010,-1.0,27.63,2 
COMPS,ioos:station:USF.COMPS:FHP:1,2014-05-28T17:06:00Z,28.1530,-82.8010,-1.0,27.67,2 
COMPS,ioos:station:USF.COMPS:FHP:1,2014-05-28T17:12:00Z,28.1530,-82.8010,-1.0,27.71,2 
COMPS,ioos:station:USF.COMPS:FHP:1,2014-05-28T17:18:00Z,28.1530,-82.8010,-1.0,27.74,2 
COMPS,ioos:station:USF.COMPS:FHP:1,2014-05-28T17:24:00Z,28.1530,-82.8010,-1.0,27.79,2 
COMPS,ioos:station:USF.COMPS:FHP:1,2014-05-28T17:30:00Z,28.1530,-82.8010,-1.0,27.83,2 
COMPS,ioos:station:USF.COMPS:FHP:1,2014-05-28T17:36:00Z,28.1530,-82.8010,-1.0,27.87,2 
COMPS,ioos:station:USF.COMPS:FHP:1,2014-05-28T17:42:00Z,28.1530,-82.8010,-1.0,27.91,2 
COMPS,ioos:station:USF.COMPS:FHP:1,2014-05-28T17:48:00Z,28.1530,-82.8010,-1.0,27.94,2 
COMPS,ioos:station:USF.COMPS:FHP:1,2014-05-28T17:54:00Z,28.1530,-82.8010,-1.0,27.98,2 
COMPS,ioos:station:USF.COMPS:FHP:1,2014-05-28T18:00:00Z,28.1530,-82.8010,-1.0,28.01,2 
COMPS,ioos:station:USF.COMPS:FHP:1,2014-05-28T18:06:00Z,28.1530,-82.8010,-1.0,28.04,2 
COMPS,ioos:station:USF.COMPS:FHP:1,2014-05-28T18:12:00Z,28.1530,-82.8010,-1.0,28.09,2 
COMPS,ioos:station:USF.COMPS:FHP:1,2014-05-28T18:18:00Z,28.1530,-82.8010,-1.0,28.12,2 
COMPS,ioos:station:USF.COMPS:FHP:1,2014-05-28T18:24:00Z,28.1530,-82.8010,-1.0,28.17,2 
COMPS,ioos:station:USF.COMPS:FHP:1,2014-05-28T18:30:00Z,28.1530,-82.8010,-1.0,28.2,2 
COMPS,ioos:station:USF.COMPS:FHP:1,2014-05-28T18:36:00Z,28.1530,-82.8010,-1.0,28.22,2 
COMPS,ioos:station:USF.COMPS:FHP:1,2014-05-28T18:42:00Z,28.1530,-82.8010,-1.0,28.25,2 
COMPS,ioos:station:USF.COMPS:FHP:1,2014-05-28T18:48:00Z,28.1530,-82.8010,-1.0,28.29,2 
COMPS,ioos:station:USF.COMPS:FHP:1,2014-05-28T18:54:00Z,28.1530,-82.8010,-1.0,28.33,2 
COMPS,ioos:station:USF.COMPS:FHP:1,2014-05-28T19:00:00Z,28.1530,-82.8010,-1.0,28.36,2 
COMPS,ioos:station:USF.COMPS:FHP:1,2014-05-28T19:06:00Z,28.1530,-82.8010,-1.0,28.37,2 
COMPS,ioos:station:USF.COMPS:FHP:1,2014-05-28T19:12:00Z,28.1530,-82.8010,-1.0,28.38,2 
COMPS,ioos:station:USF.COMPS:FHP:1,2014-05-28T19:18:00Z,28.1530,-82.8010,-1.0,28.41,2 
COMPS,ioos:station:USF.COMPS:FHP:1,2014-05-28T19:24:00Z,28.1530,-82.8010,-1.0,28.44,2 
COMPS,ioos:station:USF.COMPS:FHP:1,2014-05-28T19:30:00Z,28.1530,-82.8010,-1.0,28.46,2 
COMPS,ioos:station:USF.COMPS:FHP:1,2014-05-28T19:36:00Z,28.1530,-82.8010,-1.0,28.49,2 
COMPS,ioos:station:USF.COMPS:FHP:1,2014-05-28T19:42:00Z,28.1530,-82.8010,-1.0,28.52,2 
COMPS,ioos:station:USF.COMPS:FHP:1,2014-05-28T19:48:00Z,28.1530,-82.8010,-1.0,28.55,2 
COMPS,ioos:station:USF.COMPS:FHP:1,2014-05-28T19:54:00Z,28.1530,-82.8010,-1.0,28.55,2 
COMPS,ioos:station:USF.COMPS:FHP:1,2014-05-28T20:00:00Z,28.1530,-82.8010,-1.0,28.54,2 
COMPS,ioos:station:USF.COMPS:FHP:1,2014-05-28T20:06:00Z,28.1530,-82.8010,-1.0,28.53,2 
COMPS,ioos:station:USF.COMPS:FHP:1,2014-05-28T20:12:00Z,28.1530,-82.8010,-1.0,28.52,2 
COMPS,ioos:station:USF.COMPS:FHP:1,2014-05-28T20:18:00Z,28.1530,-82.8010,-1.0,28.51,2 
COMPS,ioos:station:USF.COMPS:FHP:1,2014-05-28T20:24:00Z,28.1530,-82.8010,-1.0,28.49,2 
COMPS,ioos:station:USF.COMPS:FHP:1,2014-05-28T20:30:00Z,28.1530,-82.8010,-1.0,28.47,2 
COMPS,ioos:station:USF.COMPS:FHP:1,2014-05-28T20:36:00Z,28.1530,-82.8010,-1.0,28.43,2 
COMPS,ioos:station:USF.COMPS:FHP:1,2014-05-28T20:42:00Z,28.1530,-82.8010,-1.0,28.4,2 
COMPS,ioos:station:USF.COMPS:FHP:1,2014-05-28T20:48:00Z,28.1530,-82.8010,-1.0,28.33,2 
COMPS,ioos:station:USF.COMPS:FHP:1,2014-05-28T20:54:00Z,28.1530,-82.8010,-1.0,28.26,2 
COMPS,ioos:station:USF.COMPS:FHP:1,2014-05-28T21:00:00Z,28.1530,-82.8010,-1.0,28.17,2 
COMPS,ioos:station:USF.COMPS:FHP:1,2014-05-28T21:06:00Z,28.1530,-82.8010,-1.0,28.13,2 
COMPS,ioos:station:USF.COMPS:FHP:1,2014-05-28T21:12:00Z,28.1530,-82.8010,-1.0,27.98,2 
COMPS,ioos:station:USF.COMPS:FHP:1,2014-05-28T21:18:00Z,28.1530,-82.8010,-1.0,26.88,2 
COMPS,ioos:station:USF.COMPS:FHP:1,2014-05-28T21:24:00Z,28.1530,-82.8010,-1.0,26.1,2 
COMPS,ioos:station:USF.COMPS:FHP:1,2014-05-28T21:30:00Z,28.1530,-82.8010,-1.0,26.02,2 
COMPS,ioos:station:USF.COMPS:FHP:1,2014-05-28T21:36:00Z,28.1530,-82.8010,-1.0,25.13,2 
COMPS,ioos:station:USF.COMPS:FHP:1,2014-05-28T21:42:00Z,28.1530,-82.8010,-1.0,24.58,2 
COMPS,ioos:station:USF.COMPS:FHP:1,2014-05-28T21:48:00Z,28.1530,-82.8010,-1.0,24.29,2 
COMPS,ioos:station:USF.COMPS:FHP:1,2014-05-28T21:54:00Z,28.1530,-82.8010,-1.0,24.02,2 
COMPS,ioos:station:USF.COMPS:FHP:1,2014-05-28T22:00:00Z,28.1530,-82.8010,-1.0,23.91,2 
COMPS,ioos:station:USF.COMPS:FHP:1,2014-05-28T22:06:00Z,28.1530,-82.8010,-1.0,23.78,2 
COMPS,ioos:station:USF.COMPS:FHP:1,2014-05-28T22:12:00Z,28.1530,-82.8010,-1.0,23.95,2 
COMPS,ioos:station:USF.COMPS:FHP:1,2014-05-28T22:18:00Z,28.1530,-82.8010,-1.0,24.05,2 
COMPS,ioos:station:USF.COMPS:FHP:1,2014-05-28T22:24:00Z,28.1530,-82.8010,-1.0,23.98,2 
COMPS,ioos:station:USF.COMPS:FHP:1,2014-05-28T22:30:00Z,28.1530,-82.8010,-1.0,24.16,2 
COMPS,ioos:station:USF.COMPS:FHP:1,2014-05-28T22:36:00Z,28.1530,-82.8010,-1.0,24.2,2 
COMPS,ioos:station:USF.COMPS:FHP:1,2014-05-28T22:42:00Z,28.1530,-82.8010,-1.0,24.16,2 
COMPS,ioos:station:USF.COMPS:FHP:1,2014-05-28T22:48:00Z,28.1530,-82.8010,-1.0,24.17,2 
COMPS,ioos:station:USF.COMPS:FHP:1,2014-05-28T22:54:00Z,28.1530,-82.8010,-1.0,24.2,2 
COMPS,ioos:station:USF.COMPS:FHP:1,2014-05-28T23:00:00Z,28.1530,-82.8010,-1.0,24.2,2 
COMPS,ioos:station:USF.COMPS:FHP:1,2014-05-28T23:06:00Z,28.1530,-82.8010,-1.0,24.15,2 
COMPS,ioos:station:USF.COMPS:FHP:1,2014-05-28T23:12:00Z,28.1530,-82.8010,-1.0,24.11,2 
COMPS,ioos:station:USF.COMPS:FHP:1,2014-05-28T23:18:00Z,28.1530,-82.8010,-1.0,24.08,2 
COMPS,ioos:station:USF.COMPS:FHP:1,2014-05-28T23:24:00Z,28.1530,-82.8010,-1.0,24.06,2 
COMPS,ioos:station:USF.COMPS:FHP:1,2014-05-28T23:30:00Z,28.1530,-82.8010,-1.0,24.06,2 
COMPS,ioos:station:USF.COMPS:FHP:1,2014-05-28T23:36:00Z,28.1530,-82.8010,-1.0,24.02,2 
COMPS,ioos:station:USF.COMPS:FHP:1,2014-05-28T23:42:00Z,28.1530,-82.8010,-1.0,24.07,2 
COMPS,ioos:station:USF.COMPS:FHP:1,2014-05-28T23:48:00Z,28.1530,-82.8010,-1.0,24.1,2 
COMPS,ioos:station:USF.COMPS:FHP:1,2014-05-28T23:54:00Z,28.1530,-82.8010,-1.0,24.01,2 
COMPS,ioos:station:USF.COMPS:FHP:1,2014-05-29T00:00:00Z,28.1530,-82.8010,-1.0,23.91,2 
COMPS,ioos:station:USF.COMPS:FHP:1,2014-05-29T00:06:00Z,28.1530,-82.8010,-1.0,23.94,2 
COMPS,ioos:station:USF.COMPS:FHP:1,2014-05-29T00:12:00Z,28.1530,-82.8010,-1.0,23.95,2 
COMPS,ioos:station:USF.COMPS:FHP:1,2014-05-29T00:18:00Z,28.1530,-82.8010,-1.0,23.9,2 
COMPS,ioos:station:USF.COMPS:FHP:1,2014-05-29T00:24:00Z,28.1530,-82.8010,-1.0,23.8,2 
COMPS,ioos:station:USF.COMPS:FHP:1,2014-05-29T00:30:00Z,28.1530,-82.8010,-1.0,23.8,2 
COMPS,ioos:station:USF.COMPS:FHP:1,2014-05-29T00:36:00Z,28.1530,-82.8010,-1.0,23.79,2 
COMPS,ioos:station:USF.COMPS:FHP:1,2014-05-29T00:42:00Z,28.1530,-82.8010,-1.0,23.77,2 
COMPS,ioos:station:USF.COMPS:FHP:1,2014-05-29T00:48:00Z,28.1530,-82.8010,-1.0,23.71,2 
COMPS,ioos:station:USF.COMPS:FHP:1,2014-05-29T00:54:00Z,28.1530,-82.8010,-1.0,23.3,2 
COMPS,ioos:station:USF.COMPS:FHP:1,2014-05-29T01:00:00Z,28.1530,-82.8010,-1.0,23.21,2 
COMPS,ioos:station:USF.COMPS:FHP:1,2014-05-29T01:06:00Z,28.1530,-82.8010,-1.0,23.18,2 
COMPS,ioos:station:USF.COMPS:FHP:1,2014-05-29T01:12:00Z,28.1530,-82.8010,-1.0,23.28,2 
COMPS,ioos:station:USF.COMPS:FHP:1,2014-05-29T01:18:00Z,28.1530,-82.8010,-1.0,23.61,2 
COMPS,ioos:station:USF.COMPS:FHP:1,2014-05-29T01:24:00Z,28.1530,-82.8010,-1.0,23.56,2 
COMPS,ioos:station:USF.COMPS:FHP:1,2014-05-29T01:30:00Z,28.1530,-82.8010,-1.0,23.56,2 
COMPS,ioos:station:USF.COMPS:FHP:1,2014-05-29T01:36:00Z,28.1530,-82.8010,-1.0,23.47,2 
COMPS,ioos:station:USF.COMPS:FHP:1,2014-05-29T01:42:00Z,28.1530,-82.8010,-1.0,23.51,2 
COMPS,ioos:station:USF.COMPS:FHP:1,2014-05-29T01:48:00Z,28.1530,-82.8010,-1.0,23.63,2 
COMPS,ioos:station:USF.COMPS:FHP:1,2014-05-29T01:54:00Z,28.1530,-82.8010,-1.0,24.03,2 
COMPS,ioos:station:USF.COMPS:FHP:1,2014-05-29T02:00:00Z,28.1530,-82.8010,-1.0,24.17,2 
COMPS,ioos:station:USF.COMPS:FHP:1,2014-05-29T02:06:00Z,28.1530,-82.8010,-1.0,23.89,2 
COMPS,ioos:station:USF.COMPS:FHP:1,2014-05-29T02:12:00Z,28.1530,-82.8010,-1.0,25.03,2 
COMPS,ioos:station:USF.COMPS:FHP:1,2014-05-29T02:18:00Z,28.1530,-82.8010,-1.0,27.33,2 
COMPS,ioos:station:USF.COMPS:FHP:1,2014-05-29T02:24:00Z,28.1530,-82.8010,-1.0,27.65,2 
COMPS,ioos:station:USF.COMPS:FHP:1,2014-05-29T02:30:00Z,28.1530,-82.8010,-1.0,27.73,2 
COMPS,ioos:station:USF.COMPS:FHP:1,2014-05-29T02:36:00Z,28.1530,-82.8010,-1.0,27.78,2 
COMPS,ioos:station:USF.COMPS:FHP:1,2014-05-29T02:42:00Z,28.1530,-82.8010,-1.0,27.82,2 
COMPS,ioos:station:USF.COMPS:FHP:1,2014-05-29T02:48:00Z,28.1530,-82.8010,-1.0,27.85,2 
COMPS,ioos:station:USF.COMPS:FHP:1,2014-05-29T02:54:00Z,28.1530,-82.8010,-1.0,27.86,2 
COMPS,ioos:station:USF.COMPS:FHP:1,2014-05-29T03:00:00Z,28.1530,-82.8010,-1.0,27.86,2 
COMPS,ioos:station:USF.COMPS:FHP:1,2014-05-29T03:06:00Z,28.1530,-82.8010,-1.0,27.85,2 
COMPS,ioos:station:USF.COMPS:FHP:1,2014-05-29T03:12:00Z,28.1530,-82.8010,-1.0,27.85,2 
COMPS,ioos:station:USF.COMPS:FHP:1,2014-05-29T03:18:00Z,28.1530,-82.8010,-1.0,27.85,2 
COMPS,ioos:station:USF.COMPS:FHP:1,2014-05-29T03:24:00Z,28.1530,-82.8010,-1.0,27.85,2 
COMPS,ioos:station:USF.COMPS:FHP:1,2014-05-29T03:30:00Z,28.1530,-82.8010,-1.0,27.85,2 
COMPS,ioos:station:USF.COMPS:FHP:1,2014-05-29T03:36:00Z,28.1530,-82.8010,-1.0,27.84,2 
COMPS,ioos:station:USF.COMPS:FHP:1,2014-05-29T03:42:00Z,28.1530,-82.8010,-1.0,27.83,2 
COMPS,ioos:station:USF.COMPS:FHP:1,2014-05-29T03:48:00Z,28.1530,-82.8010,-1.0,27.85,2 
COMPS,ioos:station:USF.COMPS:FHP:1,2014-05-29T03:54:00Z,28.1530,-82.8010,-1.0,27.89,2 
COMPS,ioos:station:USF.COMPS:FHP:1,2014-05-29T04:00:00Z,28.1530,-82.8010,-1.0,27.9,2 
COMPS,ioos:station:USF.COMPS:FHP:1,2014-05-29T04:06:00Z,28.1530,-82.8010,-1.0,27.88,2 
COMPS,ioos:station:USF.COMPS:FHP:1,2014-05-29T04:12:00Z,28.1530,-82.8010,-1.0,27.84,2 
COMPS,ioos:station:USF.COMPS:FHP:1,2014-05-29T04:18:00Z,28.1530,-82.8010,-1.0,27.85,2 
COMPS,ioos:station:USF.COMPS:FHP:1,2014-05-29T04:24:00Z,28.1530,-82.8010,-1.0,27.89,2 
COMPS,ioos:station:USF.COMPS:FHP:1,2014-05-29T04:30:00Z,28.1530,-82.8010,-1.0,27.95,2 
COMPS,ioos:station:USF.COMPS:FHP:1,2014-05-29T04:36:00Z,28.1530,-82.8010,-1.0,27.95,2 
COMPS,ioos:station:USF.COMPS:FHP:1,2014-05-29T04:42:00Z,28.1530,-82.8010,-1.0,28.01,2 
COMPS,ioos:station:USF.COMPS:FHP:1,2014-05-29T04:48:00Z,28.1530,-82.8010,-1.0,28.02,2 
COMPS,ioos:station:USF.COMPS:FHP:1,2014-05-29T04:54:00Z,28.1530,-82.8010,-1.0,27.87,2 
COMPS,ioos:station:USF.COMPS:FHP:1,2014-05-29T05:00:00Z,28.1530,-82.8010,-1.0,27.9,2 
COMPS,ioos:station:USF.COMPS:FHP:1,2014-05-29T05:06:00Z,28.1530,-82.8010,-1.0,27.88,2 
COMPS,ioos:station:USF.COMPS:FHP:1,2014-05-29T05:12:00Z,28.1530,-82.8010,-1.0,27.86,2 
COMPS,ioos:station:USF.COMPS:FHP:1,2014-05-29T05:18:00Z,28.1530,-82.8010,-1.0,27.82,2 
COMPS,ioos:station:USF.COMPS:FHP:1,2014-05-29T05:24:00Z,28.1530,-82.8010,-1.0,27.76,2 
COMPS,ioos:station:USF.COMPS:FHP:1,2014-05-29T05:30:00Z,28.1530,-82.8010,-1.0,27.71,2 
COMPS,ioos:station:USF.COMPS:FHP:1,2014-05-29T05:36:00Z,28.1530,-82.8010,-1.0,27.57,2 
COMPS,ioos:station:USF.COMPS:FHP:1,2014-05-29T05:42:00Z,28.1530,-82.8010,-1.0,27.46,2 
COMPS,ioos:station:USF.COMPS:FHP:1,2014-05-29T05:48:00Z,28.1530,-82.8010,-1.0,27.55,2 
COMPS,ioos:station:USF.COMPS:FHP:1,2014-05-29T05:54:00Z,28.1530,-82.8010,-1.0,27.58,2 
COMPS,ioos:station:USF.COMPS:FHP:1,2014-05-29T06:00:00Z,28.1530,-82.8010,-1.0,27.59,2 
COMPS,ioos:station:USF.COMPS:FHP:1,2014-05-29T06:06:00Z,28.1530,-82.8010,-1.0,27.7,2 
COMPS,ioos:station:USF.COMPS:FHP:1,2014-05-29T06:12:00Z,28.1530,-82.8010,-1.0,27.65,2 
COMPS,ioos:station:USF.COMPS:FHP:1,2014-05-29T06:18:00Z,28.1530,-82.8010,-1.0,27.6,2 
COMPS,ioos:station:USF.COMPS:FHP:1,2014-05-29T06:24:00Z,28.1530,-82.8010,-1.0,27.59,2 
COMPS,ioos:station:USF.COMPS:FHP:1,2014-05-29T06:30:00Z,28.1530,-82.8010,-1.0,27.62,2 
COMPS,ioos:station:USF.COMPS:FHP:1,2014-05-29T06:36:00Z,28.1530,-82.8010,-1.0,27.6,2 
COMPS,ioos:station:USF.COMPS:FHP:1,2014-05-29T06:42:00Z,28.1530,-82.8010,-1.0,27.6,2 
COMPS,ioos:station:USF.COMPS:FHP:1,2014-05-29T06:48:00Z,28.1530,-82.8010,-1.0,27.61,2 
COMPS,ioos:station:USF.COMPS:FHP:1,2014-05-29T06:54:00Z,28.1530,-82.8010,-1.0,27.63,2 
COMPS,ioos:station:USF.COMPS:FHP:1,2014-05-29T07:00:00Z,28.1530,-82.8010,-1.0,27.64,2 
COMPS,ioos:station:USF.COMPS:FHP:1,2014-05-29T07:06:00Z,28.1530,-82.8010,-1.0,27.64,2 
COMPS,ioos:station:USF.COMPS:FHP:1,2014-05-29T07:12:00Z,28.1530,-82.8010,-1.0,27.63,2 
COMPS,ioos:station:USF.COMPS:FHP:1,2014-05-29T07:18:00Z,28.1530,-82.8010,-1.0,27.6,2 
COMPS,ioos:station:USF.COMPS:FHP:1,2014-05-29T07:24:00Z,28.1530,-82.8010,-1.0,27.6,2 
COMPS,ioos:station:USF.COMPS:FHP:1,2014-05-29T07:30:00Z,28.1530,-82.8010,-1.0,27.59,2 
COMPS,ioos:station:USF.COMPS:FHP:1,2014-05-29T07:36:00Z,28.1530,-82.8010,-1.0,27.58,2 
COMPS,ioos:station:USF.COMPS:FHP:1,2014-05-29T07:42:00Z,28.1530,-82.8010,-1.0,27.52,2 
COMPS,ioos:station:USF.COMPS:FHP:1,2014-05-29T07:48:00Z,28.1530,-82.8010,-1.0,27.49,2 
COMPS,ioos:station:USF.COMPS:FHP:1,2014-05-29T07:54:00Z,28.1530,-82.8010,-1.0,27.45,2 
COMPS,ioos:station:USF.COMPS:FHP:1,2014-05-29T08:00:00Z,28.1530,-82.8010,-1.0,27.42,2 
COMPS,ioos:station:USF.COMPS:FHP:1,2014-05-29T08:06:00Z,28.1530,-82.8010,-1.0,27.4,2 
COMPS,ioos:station:USF.COMPS:FHP:1,2014-05-29T08:12:00Z,28.1530,-82.8010,-1.0,27.27,2 
COMPS,ioos:station:USF.COMPS:FHP:1,2014-05-29T08:18:00Z,28.1530,-82.8010,-1.0,27.18,2 
COMPS,ioos:station:USF.COMPS:FHP:1,2014-05-29T08:24:00Z,28.1530,-82.8010,-1.0,27.18,2 
COMPS,ioos:station:USF.COMPS:FHP:1,2014-05-29T08:30:00Z,28.1530,-82.8010,-1.0,27.16,2 
COMPS,ioos:station:USF.COMPS:FHP:1,2014-05-29T08:36:00Z,28.1530,-82.8010,-1.0,27.07,2 
COMPS,ioos:station:USF.COMPS:FHP:1,2014-05-29T08:42:00Z,28.1530,-82.8010,-1.0,27.03,2 
COMPS,ioos:station:USF.COMPS:FHP:1,2014-05-29T08:48:00Z,28.1530,-82.8010,-1.0,27.08,2 
COMPS,ioos:station:USF.COMPS:FHP:1,2014-05-29T08:54:00Z,28.1530,-82.8010,-1.0,27.1,2 
COMPS,ioos:station:USF.COMPS:FHP:1,2014-05-29T09:00:00Z,28.1530,-82.8010,-1.0,27.08,2 
COMPS,ioos:station:USF.COMPS:FHP:1,2014-05-29T09:06:00Z,28.1530,-82.8010,-1.0,27.04,2 
COMPS,ioos:station:USF.COMPS:FHP:1,2014-05-29T09:12:00Z,28.1530,-82.8010,-1.0,26.97,2 
COMPS,ioos:station:USF.COMPS:FHP:1,2014-05-29T09:18:00Z,28.1530,-82.8010,-1.0,26.88,2 
COMPS,ioos:station:USF.COMPS:FHP:1,2014-05-29T09:24:00Z,28.1530,-82.8010,-1.0,26.82,2 
COMPS,ioos:station:USF.COMPS:FHP:1,2014-05-29T09:30:00Z,28.1530,-82.8010,-1.0,26.84,2 
COMPS,ioos:station:USF.COMPS:FHP:1,2014-05-29T09:36:00Z,28.1530,-82.8010,-1.0,26.83,2 
COMPS,ioos:station:USF.COMPS:FHP:1,2014-05-29T09:42:00Z,28.1530,-82.8010,-1.0,26.74,2 
COMPS,ioos:station:USF.COMPS:FHP:1,2014-05-29T09:48:00Z,28.1530,-82.8010,-1.0,26.71,2 
COMPS,ioos:station:USF.COMPS:FHP:1,2014-05-29T09:54:00Z,28.1530,-82.8010,-1.0,26.67,2 
COMPS,ioos:station:USF.COMPS:FHP:1,2014-05-29T10:00:00Z,28.1530,-82.8010,-1.0,26.67,2 
COMPS,ioos:station:USF.COMPS:FHP:1,2014-05-29T10:06:00Z,28.1530,-82.8010,-1.0,26.67,2 
COMPS,ioos:station:USF.COMPS:FHP:1,2014-05-29T10:12:00Z,28.1530,-82.8010,-1.0,26.66,2 
COMPS,ioos:station:USF.COMPS:FHP:1,2014-05-29T10:18:00Z,28.1530,-82.8010,-1.0,26.65,2 
COMPS,ioos:station:USF.COMPS:FHP:1,2014-05-29T10:24:00Z,28.1530,-82.8010,-1.0,26.62,2 
COMPS,ioos:station:USF.COMPS:FHP:1,2014-05-29T10:30:00Z,28.1530,-82.8010,-1.0,26.54,2 
COMPS,ioos:station:USF.COMPS:FHP:1,2014-05-29T10:36:00Z,28.1530,-82.8010,-1.0,26.51,2 
COMPS,ioos:station:USF.COMPS:FHP:1,2014-05-29T10:42:00Z,28.1530,-82.8010,-1.0,26.54,2 
COMPS,ioos:station:USF.COMPS:FHP:1,2014-05-29T10:48:00Z,28.1530,-82.8010,-1.0,26.5,2 
COMPS,ioos:station:USF.COMPS:FHP:1,2014-05-29T10:54:00Z,28.1530,-82.8010,-1.0,26.47,2 
COMPS,ioos:station:USF.COMPS:FHP:1,2014-05-29T11:00:00Z,28.1530,-82.8010,-1.0,26.44,2 
COMPS,ioos:station:USF.COMPS:FHP:1,2014-05-29T11:06:00Z,28.1530,-82.8010,-1.0,26.4,2 
COMPS,ioos:station:USF.COMPS:FHP:1,2014-05-29T11:12:00Z,28.1530,-82.8010,-1.0,26.37,2 
COMPS,ioos:station:USF.COMPS:FHP:1,2014-05-29T11:18:00Z,28.1530,-82.8010,-1.0,26.34,2 
COMPS,ioos:station:USF.COMPS:FHP:1,2014-05-29T11:24:00Z,28.1530,-82.8010,-1.0,26.37,2 
COMPS,ioos:station:USF.COMPS:FHP:1,2014-05-29T11:30:00Z,28.1530,-82.8010,-1.0,26.35,2 
COMPS,ioos:station:USF.COMPS:FHP:1,2014-05-29T11:36:00Z,28.1530,-82.8010,-1.0,26.4,2 
COMPS,ioos:station:USF.COMPS:FHP:1,2014-05-29T11:42:00Z,28.1530,-82.8010,-1.0,26.4,2 
COMPS,ioos:station:USF.COMPS:FHP:1,2014-05-29T11:48:00Z,28.1530,-82.8010,-1.0,26.4,2 
COMPS,ioos:station:USF.COMPS:FHP:1,2014-05-29T11:54:00Z,28.1530,-82.8010,-1.0,26.41,2 
COMPS,ioos:station:USF.COMPS:FHP:1,2014-05-29T12:00:00Z,28.1530,-82.8010,-1.0,26.37,2 
COMPS,ioos:station:USF.COMPS:FHP:1,2014-05-29T12:06:00Z,28.1530,-82.8010,-1.0,26.36,2 
COMPS,ioos:station:USF.COMPS:FHP:1,2014-05-29T12:12:00Z,28.1530,-82.8010,-1.0,26.38,2 
COMPS,ioos:station:USF.COMPS:FHP:1,2014-05-29T12:18:00Z,28.1530,-82.8010,-1.0,26.39,2 
COMPS,ioos:station:USF.COMPS:FHP:1,2014-05-29T12:24:00Z,28.1530,-82.8010,-1.0,26.43,2 
COMPS,ioos:station:USF.COMPS:FHP:1,2014-05-29T12:30:00Z,28.1530,-82.8010,-1.0,26.53,2 
COMPS,ioos:station:USF.COMPS:FHP:1,2014-05-29T12:36:00Z,28.1530,-82.8010,-1.0,26.6,2 
COMPS,ioos:station:USF.COMPS:FHP:1,2014-05-29T12:42:00Z,28.1530,-82.8010,-1.0,26.65,2 
COMPS,ioos:station:USF.COMPS:FHP:1,2014-05-29T12:48:00Z,28.1530,-82.8010,-1.0,26.7,2 
COMPS,ioos:station:USF.COMPS:FHP:1,2014-05-29T12:54:00Z,28.1530,-82.8010,-1.0,26.73,2 
COMPS,ioos:station:USF.COMPS:FHP:1,2014-05-29T13:00:00Z,28.1530,-82.8010,-1.0,26.78,2 
COMPS,ioos:station:USF.COMPS:FHP:1,2014-05-29T13:06:00Z,28.1530,-82.8010,-1.0,26.83,2 
COMPS,ioos:station:USF.COMPS:FHP:1,2014-05-29T13:12:00Z,28.1530,-82.8010,-1.0,26.85,2 
COMPS,ioos:station:USF.COMPS:FHP:1,2014-05-29T13:18:00Z,28.1530,-82.8010,-1.0,26.88,2 
COMPS,ioos:station:USF.COMPS:FHP:1,2014-05-29T13:24:00Z,28.1530,-82.8010,-1.0,26.9,2 
COMPS,ioos:station:USF.COMPS:FHP:1,2014-05-29T13:30:00Z,28.1530,-82.8010,-1.0,26.94,2 
COMPS,ioos:station:USF.COMPS:FHP:1,2014-05-29T13:36:00Z,28.1530,-82.8010,-1.0,26.98,2 
COMPS,ioos:station:USF.COMPS:FHP:1,2014-05-29T13:42:00Z,28.1530,-82.8010,-1.0,27.02,2 
COMPS,ioos:station:USF.COMPS:FHP:1,2014-05-29T13:48:00Z,28.1530,-82.8010,-1.0,27.08,2 
COMPS,ioos:station:USF.COMPS:FHP:1,2014-05-29T13:54:00Z,28.1530,-82.8010,-1.0,27.14,2 
COMPS,ioos:station:USF.COMPS:FHP:1,2014-05-29T14:00:00Z,28.1530,-82.8010,-1.0,27.16,2 
COMPS,ioos:station:USF.COMPS:FHP:1,2014-05-29T14:06:00Z,28.1530,-82.8010,-1.0,27.19,2 
COMPS,ioos:station:USF.COMPS:FHP:1,2014-05-29T14:12:00Z,28.1530,-82.8010,-1.0,27.24,2 
COMPS,ioos:station:USF.COMPS:FHP:1,2014-05-29T14:18:00Z,28.1530,-82.8010,-1.0,27.29,2 
COMPS,ioos:station:USF.COMPS:FHP:1,2014-05-29T14:24:00Z,28.1530,-82.8010,-1.0,27.34,2 
COMPS,ioos:station:USF.COMPS:FHP:1,2014-05-29T14:30:00Z,28.1530,-82.8010,-1.0,27.38,2 
COMPS,ioos:station:USF.COMPS:FHP:1,2014-05-29T14:36:00Z,28.1530,-82.8010,-1.0,27.42,2 
COMPS,ioos:station:USF.COMPS:FHP:1,2014-05-29T14:42:00Z,28.1530,-82.8010,-1.0,27.47,2 
COMPS,ioos:station:USF.COMPS:FHP:1,2014-05-29T14:48:00Z,28.1530,-82.8010,-1.0,27.5,2 
COMPS,ioos:station:USF.COMPS:FHP:1,2014-05-29T14:54:00Z,28.1530,-82.8010,-1.0,27.52,2 
COMPS,ioos:station:USF.COMPS:FHP:1,2014-05-29T15:00:00Z,28.1530,-82.8010,-1.0,27.56,2 
COMPS,ioos:station:USF.COMPS:FHP:1,2014-05-29T15:06:00Z,28.1530,-82.8010,-1.0,27.58,2 
COMPS,ioos:station:USF.COMPS:FHP:1,2014-05-29T15:12:00Z,28.1530,-82.8010,-1.0,27.58,2 
COMPS,ioos:station:USF.COMPS:FHP:1,2014-05-29T15:18:00Z,28.1530,-82.8010,-1.0,27.6,2 
COMPS,ioos:station:USF.COMPS:FHP:1,2014-05-29T15:24:00Z,28.1530,-82.8010,-1.0,27.62,2 
COMPS,ioos:station:USF.COMPS:FHP:1,2014-05-29T15:30:00Z,28.1530,-82.8010,-1.0,27.64,2 
COMPS,ioos:station:USF.COMPS:FHP:1,2014-05-29T15:36:00Z,28.1530,-82.8010,-1.0,27.65,2 
COMPS,ioos:station:USF.COMPS:FHP:1,2014-05-29T15:42:00Z,28.1530,-82.8010,-1.0,27.7,2 
COMPS,ioos:station:USF.COMPS:FHP:1,2014-05-29T15:48:00Z,28.1530,-82.8010,-1.0,27.73,2 
COMPS,ioos:station:USF.COMPS:FHP:1,2014-05-29T15:54:00Z,28.1530,-82.8010,-1.0,27.76,2 
COMPS,ioos:station:USF.COMPS:FHP:1,2014-05-29T16:00:00Z,28.1530,-82.8010,-1.0,27.78,2 
COMPS,ioos:station:USF.COMPS:FHP:1,2014-05-29T16:06:00Z,28.1530,-82.8010,-1.0,27.81,2 
COMPS,ioos:station:USF.COMPS:FHP:1,2014-05-29T16:12:00Z,28.1530,-82.8010,-1.0,27.83,2 
COMPS,ioos:station:USF.COMPS:FHP:1,2014-05-29T16:18:00Z,28.1530,-82.8010,-1.0,27.88,2 
COMPS,ioos:station:USF.COMPS:FHP:1,2014-05-29T16:24:00Z,28.1530,-82.8010,-1.0,27.87,2 
COMPS,ioos:station:USF.COMPS:FHP:1,2014-05-29T16:30:00Z,28.1530,-82.8010,-1.0,27.89,2 
COMPS,ioos:station:USF.COMPS:FHP:1,2014-05-29T16:36:00Z,28.1530,-82.8010,-1.0,27.92,2 
COMPS,ioos:station:USF.COMPS:FHP:1,2014-05-29T16:42:00Z,28.1530,-82.8010,-1.0,27.97,2 
COMPS,ioos:station:USF.COMPS:FHP:1,2014-05-29T16:48:00Z,28.1530,-82.8010,-1.0,27.98,2 
COMPS,ioos:station:USF.COMPS:FHP:1,2014-05-29T16:54:00Z,28.1530,-82.8010,-1.0,28.05,2 
COMPS,ioos:station:USF.COMPS:FHP:1,2014-05-29T17:00:00Z,28.1530,-82.8010,-1.0,28.14,2 
COMPS,ioos:station:USF.COMPS:FHP:1,2014-05-29T17:06:00Z,28.1530,-82.8010,-1.0,28.11,2 
COMPS,ioos:station:USF.COMPS:FHP:1,2014-05-29T17:12:00Z,28.1530,-82.8010,-1.0,28.11,2 
COMPS,ioos:station:USF.COMPS:FHP:1,2014-05-29T17:18:00Z,28.1530,-82.8010,-1.0,28.13,2 
COMPS,ioos:station:USF.COMPS:FHP:1,2014-05-29T17:24:00Z,28.1530,-82.8010,-1.0,28.15,2 
COMPS,ioos:station:USF.COMPS:FHP:1,2014-05-29T17:30:00Z,28.1530,-82.8010,-1.0,28.19,2 
COMPS,ioos:station:USF.COMPS:FHP:1,2014-05-29T17:36:00Z,28.1530,-82.8010,-1.0,28.24,2 
COMPS,ioos:station:USF.COMPS:FHP:1,2014-05-29T17:42:00Z,28.1530,-82.8010,-1.0,28.32,2 
COMPS,ioos:station:USF.COMPS:FHP:1,2014-05-29T17:48:00Z,28.1530,-82.8010,-1.0,28.38,2 
COMPS,ioos:station:USF.COMPS:FHP:1,2014-05-29T17:54:00Z,28.1530,-82.8010,-1.0,28.45,2 
COMPS,ioos:station:USF.COMPS:FHP:1,2014-05-29T18:00:00Z,28.1530,-82.8010,-1.0,28.51,2 
COMPS,ioos:station:USF.COMPS:FHP:1,2014-05-29T18:06:00Z,28.1530,-82.8010,-1.0,28.54,2 
COMPS,ioos:station:USF.COMPS:FHP:1,2014-05-29T18:12:00Z,28.1530,-82.8010,-1.0,28.61,2 
COMPS,ioos:station:USF.COMPS:FHP:1,2014-05-29T18:18:00Z,28.1530,-82.8010,-1.0,28.62,2 
COMPS,ioos:station:USF.COMPS:FHP:1,2014-05-29T18:24:00Z,28.1530,-82.8010,-1.0,28.65,2 